This is the latest recevied weather packets stored in our database for station/object KJ4AJP. If no packets are shown the sender has not sent any weather packets the latest 10 day(s).
| Time | Temp. | Humidity | Pressure | Rain* | Wind** | Luminosity | Snow |
|---|---|---|---|---|---|---|---|
| 1778002728 | 17.22° C | 92% | 1009 hPa | 1.78 mm | - | 80 W/m² | - |
| 1778002425 | 17.22° C | 91% | 1009.5 hPa | 0 mm | - | 50 W/m² | - |
| 1778002122 | 17.22° C | 91% | 1009.2 hPa | 0 mm | - | 56 W/m² | - |
| 1778001820 | 17.22° C | 91% | 1009.2 hPa | 0 mm | - | 81 W/m² | - |
| 1778001519 | 17.22° C | 90% | 1009.5 hPa | 0 mm | - | 82 W/m² | - |
| 1778001216 | 17.22° C | 90% | 1009.3 hPa | 0 mm | - | 88 W/m² | - |
| 1778000913 | 17.78° C | 89% | 1009.3 hPa | 0 mm | - | 94 W/m² | - |
| 1778000610 | 17.22° C | 90% | 1009.4 hPa | 0 mm | - | 156 W/m² | - |
| 1778000305 | 17.22° C | 90% | 1009.5 hPa | 0 mm | - | 100 W/m² | - |
| 1778000001 | 17.22° C | 90% | 1009.5 hPa | 0 mm | - | 109 W/m² | - |
| 1777999696 | 17.22° C | 91% | 1009.5 hPa | 0 mm | - | 124 W/m² | - |
| 1777999394 | 17.22° C | 91% | 1009.7 hPa | 0 mm | - | 139 W/m² | - |
| 1777999092 | 17.22° C | 91% | 1009.5 hPa | 0 mm | - | 67 W/m² | - |
| 1777998790 | 17.22° C | 91% | 1009.5 hPa | 0 mm | - | 66 W/m² | - |
| 1777998488 | 17.22° C | 91% | 1009.7 hPa | 0 mm | - | 81 W/m² | - |
| 1777998184 | 17.22° C | 91% | 1010 hPa | 0 mm | - | 60 W/m² | - |
| 1777997881 | 17.22° C | 91% | 1009.7 hPa | 0 mm | - | 56 W/m² | - |
| 1777997579 | 17.22° C | 90% | 1009.8 hPa | 0 mm | - | 89 W/m² | - |
| 1777997276 | 17.22° C | 90% | 1009.6 hPa | 0 mm | - | 72 W/m² | - |
| 1777996974 | 17.22° C | 90% | 1009.8 hPa | 0 mm | - | 121 W/m² | - |
| 1777996670 | 17.22° C | 90% | 1009.6 hPa | 0 mm | - | 164 W/m² | - |
| 1777996366 | 17.22° C | 90% | 1009.8 hPa | 0 mm | - | 142 W/m² | - |
| 1777996062 | 17.22° C | 90% | 1009.9 hPa | 0 mm | - | 129 W/m² | - |
| 1777995759 | 17.22° C | 91% | 1009.7 hPa | 0 mm | - | 212 W/m² | - |
| 1777995455 | 16.67° C | 91% | 1009.4 hPa | 0 mm | - | 212 W/m² | - |
* Rain latest hour (hover to see other rain measurements)
** Current wind speed in m/s (hover to see current wind gust speed)